Location: Ferma
(41.9500°N, 44.5167°E)
Time: 19:11:21
(UTC+00:00)

Cosmos 220 Rocket - Pass Details

Date: 29 May 2022
Orbit: 572 x 614 km, 74.0° (Epoch: 30 June)

Event Time Altitude Azimuth Distance (km) Brightness Sun altitude
Exits shadow 21:24:57 20° 290° (WNW) 1,339 5.9 -26.1°
Maximum altitude 21:25:26 21° 300° (WNW) 1,325 5.9 -26.0°
Drops below altitude 10° 21:28:37 10° 350° (N) 1,886 7.5 -26.0°
Sets 21:31:18 0° 7° (N) 2,792 8.8 -25.9°
